Weather in Shilovo

Russia / Pskov Oblast     57°08′29″N   29°53′59″E
temp.,
°C
wind,
m/s
gust,
m/s
humid.,
%
clouds,
%
prec.,
mm/h
press.,
hPa
HPBL,
m
8 may, sat
sat800:00+5n2497100 5.5 1004300
03:00+3nw4798100 11.9 1003393
06:00+3wsw2799100 1.2 1004414
09:00+6wsw489253 1.4 1005772
12:00+7w466960 0.3 10071420
15:00+7wnw4762100 0.3 10081522
18:00+7wnw476299 0.1 10091301
21:00+3wnw388410 0.2 1011294
9 may, sun
sun900:00+2wnw311925 0.0 1012412
03:00+1wnw312885 0.0 1014424
06:000w310860 0.0 1016325
09:00+7wnw47581 0.0 1018824
12:00+11wnw47445 0.0 10192007
15:00+12w454186 0.0 10202045
18:00+12wsw354684 0.0 10211896
21:00+6s257323 0.0 102270
10 may, mon
mon1000:00+5s3127681 0.0 1022251
03:00+6s31275100 0.0 1023381
06:00+6s41384100 0.3 1023508
09:00+12ssw51163100 0.3 1023636
12:00+16ssw5855100 0.0 10241027
15:00+18sw575040 0.0 10241248
18:00+19ssw47595 0.0 10241390
21:00+12s31183100 0.0 1025251
11 may, tue
tue1100:00+10s3119299 0.0 1027257
03:00+8s289560 0.0 1027171
06:00+8sse3108862 0.0 1027219
09:00+14s49619 0.0 1027570
12:00+18s574628 0.0 10271179
15:00+19sse574453 0.0 10261302
18:00+19sse475659 0.0 10251082
21:00+12sse23825 0.0 102545
12 may, wed
wed1200:00+10se27925 0.0 1025140
03:00+8se27955 0.0 1025134
06:00+8se27905 0.0 1025150
09:00+15se35650 0.0 1025428
12:00+20ese35510 0.0 10231067
15:00+22ese47430 0.0 10221693
18:00+22ese375456 0.0 10201495
21:00+14se259415 0.4 102193